SCP
0 0 0 0 0 2 0 1 0 3 2 1 1 1 1 0 1 1 1 1 1 2 2 2 2 2 1 1 1 1 0 0 0 0 0 0 0 0 0 0 0 0 0
0 0 0 0 0 0 1 0 0 1 1 2 1 1 1 1 1 2 1 1 1 1 1 2 1 2 3 3 2 1 0 0 0 0 0 0 0 0 0 0 0 0 0
0 0 0 0 0 0 0 0 2 0 1 2 2 2 2 1 1 1 1 1 1 1 1 2 2 3 4 2 2 0 0 0 0 0 0 0 0 0 0 0 0 0 0
0 0 0 0 0 0 0 3 1 2 1 2 2 2 2 2 1 1 1 1 2 1 2 2 1 2 2 1 0 0 0 0 0 0 0 0 0 0 -0 0 0 0 0
0 0 0 0 0 0 0 2 3 2 3 3 3 2 2 2 3 2 2 2 2 2 2 2 1 1 0 0 0 0 0 0 0 0 0 0 0 0 0 0 0 0 0
0 0 0 0 0 0 0 1 5 4 5 4 3 3 4 4 3 2 3 4 4 3 2 2 1 0 0 0 0 0 0 0 0 0 0 0 0 0 0 0 0 0 0
0 0 0 0 0 0 0 2 2 6 6 5 4 4 4 4 2 1 2 3 3 2 2 2 1 0 0 0 0 0 0 0 0 0 0 0 0 0 0 0 0 0 0
0 0 0 0 0 0 0 1 4 6 8 6 6 5 5 4 1 1 0 3 2 1 2 2 0 0 0 0 0 0 0 0 0 0 0 0 0 0 0 0 0 0 0
0 0 0 0 0 0 0 1 2 4 5 5 7 6 5 5 1 0 0 3 3 2 1 0 0 0 0 0 0 0 0 0 0 0 0 0 0 0 0 0 0 0 0
0 0 0 0 0 0 0 0 1 3 4 4 4 4 2 3 0 0 0 4 2 0 0 0 0 0 0 0 0 0 0 0 0 0 0 0 0 0 0 0 0 0 0
0 0 0 0 0 0 0 0 1 2 2 2 2 2 3 2 1 0 0 3 0 0 0 0 0 0 0 0 0 0 0 0 0 0 0 0 0 0 0 0 0 0 0
0 0 0 0 0 0 0 0 0 1 2 1 1 2 3 2 0 0 0 0 0 0 0 0 0 0 0 0 0 0 0 0 0 0 0 0 0 0 0 0 0 0 0
0 0 0 0 0 0 0 1 0 1 1 1 1 1 1 0 0 0 0 0 0 0 0 0 0 0 0 0 0 0 0 0 0 0 0 0 0 0 0 0 0 0 0
0 0 0 0 0 0 0 0 0 -0 -0 0 1 1 0 0 0 0 0 0 0 0 0 0 0 0 0 0 0 0 0 0 0 0 0 0 0 0 0 0 0 0 0
0 0 0 0 0 0 0 0 0 0 0 1 1 1 0 0 0 0 0 0 0 0 0 0 0 0 0 0 0 0 0 0 0 0 0 0 0 0 0 0 0 0 0
0 0 0 0 0 0 0 -0 0 0 0 0 0 1 0 0 0 0 0 0 0 0 0 0 0 0 0 0 0 0 0 0 0 0 0 0 0 0 0 0 0 0 0
0 0 0 0 0 0 0 0 0 0 0 0 0 0 0 0 0 0 0 0 0 0 0 0 0 0 0 0 0 0 0 0 0 0 0 0 0 0 0 0 0 0 0
-0 0 0 0 0 0 0 0 0 0 0 0 0 0 0 0 0 0 0 0 0 0 0 0 0 0 0 0 0 0 0 0 0 0 0 0 0 0 0 0 0 0 0
-0 -0 0 0 0 0 0 0 0 0 0 0 0 0 0 0 0 0 0 0 0 0 0 0 0 0 0 0 0 0 0 0 0 0 0 0 0 0 0 0 0 0 0
-0 -0 -0 0 0 0 0 0 0 0 0 0 0 0 0 0 0 0 0 0 0 0 0 0 0 0 0 0 0 0 0 0 0 0 0 0 0 0 0 0 0 0 0
-0 -0 -0 0 0 0 0 0 0 0 0 0 0 0 0 0 0 0 0 0 0 0 0 0 0 0 0 0 0 0 0 0 0 0 0 0 0 0 0 0 0 0 0
-0 -0 -0 0 0 0 -0 -0 0 0 0 0 0 0 0 0 0 0 0 0 0 0 0 0 0 0 0 0 0 0 0 0 0 0 0 0 0 0 0 0 0 0 0
-0 0 0 0 0 0 0 -0 -0 -0 0 0 0 0 0 0 0 0 0 0 0 0 0 0 0 0 0 0 0 0 0 0 0 0 0 0 0 0 0 0 0 0 0
-0 -0 -0 -0 0 -0 -0 0 0 0 0 -0 0 0 0 0 0 0 0 0 0 0 0 0 0 0 0 0 0 0 0 0 0 0 0 0 0 0 0 0 0 0 0
0 0 -0 -0 -0 -0 -0 -0 0 0 0 0 0 0 0 0 0 0 0 0 0 0 0 0 0 0 0 0 0 0 0 0 0 0 0 0 0 0 0 0 0 0 0
-0 0 0 0 0 -0 0 0 -0 0 0 0 0 0 0 0 0 0 0 0 0 0 0 0 0 0 0 0 0 0 0 0 0 0 0 0 0 0 0 0 0 0 0
Wind_Speed_500mb
46 33 26 47 60 68 96 99 49 70 61 55 55 53 59 58 65 62 61 57 57 57 57 54 53 51 49 44 38 33 35 38 37 33 35 29 28 29 19 11 6 11 2
38 43 30 36 52 60 64 141 109 55 53 48 48 49 53 57 60 63 61 56 54 59 60 57 55 54 58 55 47 44 49 44 47 40 39 33 32 29 22 19 15 16 10
36 32 36 22 46 57 55 97 69 60 46 46 46 48 46 47 49 56 57 56 56 55 57 60 59 63 71 63 60 62 58 51 44 42 34 31 31 31 25 18 12 14 14
37 34 31 32 21 61 53 46 49 45 48 49 53 47 46 47 48 49 49 55 58 59 61 61 61 68 62 76 70 60 59 51 47 40 34 34 37 37 25 18 15 17 17
40 34 31 30 28 24 56 55 42 53 48 50 49 49 50 53 50 56 56 59 63 58 62 63 64 68 72 71 74 66 61 48 45 41 36 36 35 38 36 17 18 23 21
41 40 32 28 25 22 23 60 49 43 47 48 51 51 53 55 58 65 63 63 67 66 64 61 61 71 72 74 68 63 59 52 50 45 38 36 31 24 33 21 28 28 21
41 40 35 29 26 22 16 24 55 46 44 55 54 54 57 59 66 71 66 61 61 63 63 63 65 73 77 76 65 53 49 45 36 35 32 26 17 38 26 30 29 28 18
43 40 34 28 27 20 16 15 43 50 53 45 52 55 56 59 71 69 67 63 57 56 58 65 74 78 72 72 68 62 61 54 46 33 22 20 26 28 27 27 30 26 20
43 38 36 32 26 20 17 11 16 47 46 53 54 53 62 62 66 68 69 65 59 62 65 67 67 65 75 80 77 73 70 53 34 34 33 28 29 27 29 29 31 25 19
40 38 33 29 28 29 25 17 12 18 41 52 59 64 69 72 74 69 70 62 73 75 66 62 65 60 84 79 72 79 60 46 45 53 36 33 30 30 33 34 28 23 22
40 35 33 28 30 26 33 28 11 13 23 43 55 65 62 64 70 66 67 79 83 78 67 65 66 72 81 72 77 66 54 50 53 45 39 36 37 39 36 25 27 22 23
30 28 27 27 30 20 38 36 29 28 15 22 35 48 56 65 71 70 70 82 82 78 71 68 69 80 73 79 77 62 47 43 47 42 37 37 35 34 29 26 29 30 26
11 13 18 18 16 41 41 34 38 35 43 38 38 44 55 64 67 66 65 78 73 67 71 75 67 80 83 84 72 56 57 53 51 44 42 39 37 35 35 35 31 30 29
11 8 11 13 16 21 23 28 39 41 41 44 46 52 58 62 60 65 63 72 78 70 68 75 82 86 88 77 66 59 56 57 53 44 43 42 41 41 37 34 33 29 27
18 8 7 11 14 18 21 22 27 34 39 40 53 53 52 56 61 60 67 77 78 71 71 81 81 101 91 76 67 61 65 56 48 45 47 45 42 41 39 36 33 31 27
19 13 9 8 8 9 12 15 20 29 37 42 46 43 43 48 47 43 43 69 75 69 73 75 95 99 93 86 78 78 61 57 48 47 46 45 45 44 43 38 35 31 29
21 14 10 4 5 6 6 10 19 26 34 39 41 42 41 36 33 33 36 44 67 86 86 87 97 95 90 88 88 83 66 55 53 48 45 45 46 43 47 42 36 33 31
25 19 11 6 8 11 13 18 22 23 25 29 37 38 36 40 42 37 34 41 65 84 90 93 103 109 108 97 90 77 65 59 53 49 48 47 46 50 46 42 38 36 34
30 25 22 15 7 7 13 19 24 25 24 25 28 36 40 37 37 39 30 44 65 79 85 88 107 108 107 104 87 77 76 69 61 55 49 48 48 47 45 41 39 40 38
31 27 21 17 15 13 12 12 11 12 17 18 22 23 28 29 33 38 52 54 62 62 71 87 95 106 105 97 91 86 73 67 66 60 51 49 48 46 46 44 41 42 35
28 24 21 20 16 13 8 7 10 10 7 9 11 18 24 31 44 52 62 61 66 67 71 76 89 111 103 92 82 82 77 71 63 60 50 47 48 48 46 44 43 40 40
27 24 22 21 20 22 20 21 25 25 23 20 27 34 40 44 51 61 61 64 67 72 75 73 68 89 89 82 81 77 74 59 60 52 49 46 47 48 47 47 44 42 40
28 26 26 26 26 23 24 24 24 28 36 39 43 42 43 50 52 55 56 61 66 71 71 77 66 69 75 78 67 65 57 53 48 49 48 47 48 48 47 47 44 42 39
30 28 27 27 28 27 25 27 33 38 45 52 57 64 67 71 71 72 74 77 81 82 76 78 71 69 73 74 64 52 57 52 53 46 42 46 47 50 47 45 42 39 40
30 31 30 30 31 39 40 39 44 48 52 52 53 55 59 67 74 79 81 79 77 82 74 76 66 57 53 57 48 43 52 52 49 48 47 46 46 44 44 43 43 39 39
29 31 34 36 35 36 41 47 47 45 52 60 64 66 68 69 66 61 59 58 58 59 59 61 56 56 53 46 46 49 51 49 52 44 42 44 45 44 42 43 42 41 39
Wind_Direction_500mb
323 313 274 230 224 229 233 215 229 206 199 196 205 207 210 212 217 213 212 206 212 213 216 216 218 212 214 216 211 206 222 214 207 208 218 220 215 218 189 184 106 125 299
321 327 312 256 218 223 233 220 236 202 197 191 194 200 203 209 212 213 214 210 214 214 217 213 216 213 212 210 208 222 223 216 222 213 214 214 212 217 212 158 133 130 163
312 317 316 284 228 219 225 205 213 214 188 186 193 191 189 193 204 214 218 215 215 216 217 216 215 211 219 213 218 221 218 209 207 203 200 195 209 207 206 170 142 149 169
305 308 307 303 248 221 222 218 208 200 194 191 197 190 195 204 208 210 212 214 220 222 219 220 218 218 216 223 222 219 216 206 199 194 200 203 209 201 188 172 147 152 157
294 296 297 305 293 227 214 219 211 212 194 196 196 197 200 205 208 211 211 215 217 217 220 221 219 228 232 226 224 216 213 200 193 192 193 192 196 192 194 161 157 175 174
294 285 288 290 291 273 226 204 201 208 203 194 197 199 201 205 211 213 216 218 224 227 227 228 224 228 230 220 222 226 214 207 198 196 189 190 191 204 201 178 181 178 177
290 282 284 286 290 295 285 209 206 199 205 201 198 201 205 207 210 214 216 222 230 234 230 228 223 224 222 216 217 213 203 192 197 195 191 191 217 204 223 181 185 182 185
289 277 273 275 273 281 285 274 209 202 207 204 206 207 208 212 219 217 218 221 229 231 227 228 226 224 222 209 197 189 189 189 195 190 196 223 226 231 209 187 183 179 174
285 270 256 249 255 267 268 268 198 208 209 214 211 212 214 213 221 222 220 218 229 234 229 231 229 221 213 199 194 188 190 194 200 222 217 224 236 207 197 174 178 179 170
282 267 255 249 235 247 254 252 202 201 209 216 221 224 225 227 229 229 223 213 229 234 233 233 234 224 201 190 195 195 197 197 208 208 209 223 207 195 182 160 177 178 172
286 271 254 240 226 224 243 264 253 244 226 212 221 226 228 230 231 228 227 223 232 235 232 228 222 210 191 195 197 203 200 204 197 204 201 195 180 177 176 166 171 183 178
280 263 251 239 231 224 231 248 246 254 251 240 225 227 229 234 231 235 228 227 232 236 232 219 215 201 196 196 191 197 205 211 196 187 166 161 160 161 162 156 151 160 161
301 260 238 236 213 202 248 245 265 256 263 259 246 228 228 233 229 230 229 224 234 237 231 217 206 189 193 198 198 204 203 196 184 168 165 163 165 159 154 149 146 149 149
58 145 180 192 195 201 211 239 235 242 238 245 249 241 231 232 226 223 218 220 224 227 223 213 200 195 195 197 201 191 189 183 175 168 164 162 163 158 155 155 146 137 132
47 76 122 161 184 210 223 237 245 230 225 228 237 244 242 236 230 228 224 214 222 226 222 206 195 187 189 189 179 179 180 171 165 170 167 162 156 160 160 157 153 147 141
45 64 84 154 175 214 233 250 249 232 231 233 232 238 253 252 250 254 239 228 225 234 216 210 190 185 185 184 178 174 174 166 171 171 165 161 161 162 159 158 156 152 150
33 41 43 84 150 195 223 250 249 242 231 228 232 237 234 242 240 244 239 247 240 235 226 207 191 186 187 182 177 176 171 170 168 166 163 163 162 165 158 156 155 157 152
23 30 28 353 328 313 302 273 264 256 247 238 237 241 238 235 235 241 245 245 229 227 226 208 190 189 186 180 180 172 167 167 163 161 163 161 164 159 156 156 157 157 154
20 16 14 4 348 305 290 280 270 268 266 254 242 232 231 229 230 236 239 241 231 215 212 200 193 190 184 177 174 167 174 158 158 159 162 160 159 159 154 156 159 156 151
21 10 6 6 0 350 332 309 291 268 253 243 234 228 226 219 209 193 196 201 195 192 194 194 186 189 181 170 171 173 167 162 159 159 157 159 156 154 154 157 156 149 148
29 25 27 32 41 39 24 13 8 342 291 239 188 174 179 190 181 183 182 188 192 186 176 173 176 179 176 172 169 164 165 162 159 156 155 157 151 152 156 152 148 151 152
37 46 59 69 81 85 84 92 89 87 95 117 127 136 153 162 168 171 174 181 180 179 171 165 167 170 168 167 163 162 165 157 156 152 153 150 149 152 153 150 151 150 148
46 61 72 82 91 97 105 112 114 115 109 117 127 139 146 145 149 156 158 156 161 162 162 158 145 148 150 154 153 158 155 155 153 155 146 150 151 152 150 149 150 146 148
57 63 75 88 91 92 90 94 101 112 115 116 119 125 128 129 131 133 135 139 139 140 146 150 153 150 149 151 147 148 159 152 148 146 149 149 151 150 149 147 146 149 149
66 70 74 80 85 87 83 90 98 101 105 109 113 117 123 127 126 124 126 130 131 136 143 143 145 148 146 149 143 147 154 148 147 145 151 144 145 147 146 147 146 146 145
79 84 84 85 86 89 96 97 96 104 105 107 110 110 110 110 110 112 116 120 122 127 135 137 139 146 149 150 147 148 152 154 149 140 138 142 144 146 148 147 143 144 145
Wind_Speed_850mb
46 33 26 47 60 68 96 99 49 70 61 55 55 53 59 58 65 62 61 57 57 57 57 54 53 51 49 44 38 33 35 38 37 33 35 29 28 29 19 11 6 11 2
38 43 30 36 52 60 64 141 109 55 53 48 48 49 53 57 60 63 61 56 54 59 60 57 55 54 58 55 47 44 49 44 47 40 39 33 32 29 22 19 15 16 10
36 32 36 22 46 57 55 97 69 60 46 46 46 48 46 47 49 56 57 56 56 55 57 60 59 63 71 63 60 62 58 51 44 42 34 31 31 31 25 18 12 14 14
37 34 31 32 21 61 53 46 49 45 48 49 53 47 46 47 48 49 49 55 58 59 61 61 61 68 62 76 70 60 59 51 47 40 34 34 37 37 25 18 15 17 17
40 34 31 30 28 24 56 55 42 53 48 50 49 49 50 53 50 56 56 59 63 58 62 63 64 68 72 71 74 66 61 48 45 41 36 36 35 38 36 17 18 23 21
41 40 32 28 25 22 23 60 49 43 47 48 51 51 53 55 58 65 63 63 67 66 64 61 61 71 72 74 68 63 59 52 50 45 38 36 31 24 33 21 28 28 21
41 40 35 29 26 22 16 24 55 46 44 55 54 54 57 59 66 71 66 61 61 63 63 63 65 73 77 76 65 53 49 45 36 35 32 26 17 38 26 30 29 28 18
43 40 34 28 27 20 16 15 43 50 53 45 52 55 56 59 71 69 67 63 57 56 58 65 74 78 72 72 68 62 61 54 46 33 22 20 26 28 27 27 30 26 20
43 38 36 32 26 20 17 11 16 47 46 53 54 53 62 62 66 68 69 65 59 62 65 67 67 65 75 80 77 73 70 53 34 34 33 28 29 27 29 29 31 25 19
40 38 33 29 28 29 25 17 12 18 41 52 59 64 69 72 74 69 70 62 73 75 66 62 65 60 84 79 72 79 60 46 45 53 36 33 30 30 33 34 28 23 22
40 35 33 28 30 26 33 28 11 13 23 43 55 65 62 64 70 66 67 79 83 78 67 65 66 72 81 72 77 66 54 50 53 45 39 36 37 39 36 25 27 22 23
30 28 27 27 30 20 38 36 29 28 15 22 35 48 56 65 71 70 70 82 82 78 71 68 69 80 73 79 77 62 47 43 47 42 37 37 35 34 29 26 29 30 26
11 13 18 18 16 41 41 34 38 35 43 38 38 44 55 64 67 66 65 78 73 67 71 75 67 80 83 84 72 56 57 53 51 44 42 39 37 35 35 35 31 30 29
11 8 11 13 16 21 23 28 39 41 41 44 46 52 58 62 60 65 63 72 78 70 68 75 82 86 88 77 66 59 56 57 53 44 43 42 41 41 37 34 33 29 27
18 8 7 11 14 18 21 22 27 34 39 40 53 53 52 56 61 60 67 77 78 71 71 81 81 101 91 76 67 61 65 56 48 45 47 45 42 41 39 36 33 31 27
19 13 9 8 8 9 12 15 20 29 37 42 46 43 43 48 47 43 43 69 75 69 73 75 95 99 93 86 78 78 61 57 48 47 46 45 45 44 43 38 35 31 29
21 14 10 4 5 6 6 10 19 26 34 39 41 42 41 36 33 33 36 44 67 86 86 87 97 95 90 88 88 83 66 55 53 48 45 45 46 43 47 42 36 33 31
25 19 11 6 8 11 13 18 22 23 25 29 37 38 36 40 42 37 34 41 65 84 90 93 103 109 108 97 90 77 65 59 53 49 48 47 46 50 46 42 38 36 34
30 25 22 15 7 7 13 19 24 25 24 25 28 36 40 37 37 39 30 44 65 79 85 88 107 108 107 104 87 77 76 69 61 55 49 48 48 47 45 41 39 40 38
31 27 21 17 15 13 12 12 11 12 17 18 22 23 28 29 33 38 52 54 62 62 71 87 95 106 105 97 91 86 73 67 66 60 51 49 48 46 46 44 41 42 35
28 24 21 20 16 13 8 7 10 10 7 9 11 18 24 31 44 52 62 61 66 67 71 76 89 111 103 92 82 82 77 71 63 60 50 47 48 48 46 44 43 40 40
27 24 22 21 20 22 20 21 25 25 23 20 27 34 40 44 51 61 61 64 67 72 75 73 68 89 89 82 81 77 74 59 60 52 49 46 47 48 47 47 44 42 40
28 26 26 26 26 23 24 24 24 28 36 39 43 42 43 50 52 55 56 61 66 71 71 77 66 69 75 78 67 65 57 53 48 49 48 47 48 48 47 47 44 42 39
30 28 27 27 28 27 25 27 33 38 45 52 57 64 67 71 71 72 74 77 81 82 76 78 71 69 73 74 64 52 57 52 53 46 42 46 47 50 47 45 42 39 40
30 31 30 30 31 39 40 39 44 48 52 52 53 55 59 67 74 79 81 79 77 82 74 76 66 57 53 57 48 43 52 52 49 48 47 46 46 44 44 43 43 39 39
29 31 34 36 35 36 41 47 47 45 52 60 64 66 68 69 66 61 59 58 58 59 59 61 56 56 53 46 46 49 51 49 52 44 42 44 45 44 42 43 42 41 39
Wind_Direction_850mb
323 313 274 230 224 229 233 215 229 206 199 196 205 207 210 212 217 213 212 206 212 213 216 216 218 212 214 216 211 206 222 214 207 208 218 220 215 218 189 184 106 125 299
321 327 312 256 218 223 233 220 236 202 197 191 194 200 203 209 212 213 214 210 214 214 217 213 216 213 212 210 208 222 223 216 222 213 214 214 212 217 212 158 133 130 163
312 317 316 284 228 219 225 205 213 214 188 186 193 191 189 193 204 214 218 215 215 216 217 216 215 211 219 213 218 221 218 209 207 203 200 195 209 207 206 170 142 149 169
305 308 307 303 248 221 222 218 208 200 194 191 197 190 195 204 208 210 212 214 220 222 219 220 218 218 216 223 222 219 216 206 199 194 200 203 209 201 188 172 147 152 157
294 296 297 305 293 227 214 219 211 212 194 196 196 197 200 205 208 211 211 215 217 217 220 221 219 228 232 226 224 216 213 200 193 192 193 192 196 192 194 161 157 175 174
294 285 288 290 291 273 226 204 201 208 203 194 197 199 201 205 211 213 216 218 224 227 227 228 224 228 230 220 222 226 214 207 198 196 189 190 191 204 201 178 181 178 177
290 282 284 286 290 295 285 209 206 199 205 201 198 201 205 207 210 214 216 222 230 234 230 228 223 224 222 216 217 213 203 192 197 195 191 191 217 204 223 181 185 182 185
289 277 273 275 273 281 285 274 209 202 207 204 206 207 208 212 219 217 218 221 229 231 227 228 226 224 222 209 197 189 189 189 195 190 196 223 226 231 209 187 183 179 174
285 270 256 249 255 267 268 268 198 208 209 214 211 212 214 213 221 222 220 218 229 234 229 231 229 221 213 199 194 188 190 194 200 222 217 224 236 207 197 174 178 179 170
282 267 255 249 235 247 254 252 202 201 209 216 221 224 225 227 229 229 223 213 229 234 233 233 234 224 201 190 195 195 197 197 208 208 209 223 207 195 182 160 177 178 172
286 271 254 240 226 224 243 264 253 244 226 212 221 226 228 230 231 228 227 223 232 235 232 228 222 210 191 195 197 203 200 204 197 204 201 195 180 177 176 166 171 183 178
280 263 251 239 231 224 231 248 246 254 251 240 225 227 229 234 231 235 228 227 232 236 232 219 215 201 196 196 191 197 205 211 196 187 166 161 160 161 162 156 151 160 161
301 260 238 236 213 202 248 245 265 256 263 259 246 228 228 233 229 230 229 224 234 237 231 217 206 189 193 198 198 204 203 196 184 168 165 163 165 159 154 149 146 149 149
58 145 180 192 195 201 211 239 235 242 238 245 249 241 231 232 226 223 218 220 224 227 223 213 200 195 195 197 201 191 189 183 175 168 164 162 163 158 155 155 146 137 132
47 76 122 161 184 210 223 237 245 230 225 228 237 244 242 236 230 228 224 214 222 226 222 206 195 187 189 189 179 179 180 171 165 170 167 162 156 160 160 157 153 147 141
45 64 84 154 175 214 233 250 249 232 231 233 232 238 253 252 250 254 239 228 225 234 216 210 190 185 185 184 178 174 174 166 171 171 165 161 161 162 159 158 156 152 150
33 41 43 84 150 195 223 250 249 242 231 228 232 237 234 242 240 244 239 247 240 235 226 207 191 186 187 182 177 176 171 170 168 166 163 163 162 165 158 156 155 157 152
23 30 28 353 328 313 302 273 264 256 247 238 237 241 238 235 235 241 245 245 229 227 226 208 190 189 186 180 180 172 167 167 163 161 163 161 164 159 156 156 157 157 154
20 16 14 4 348 305 290 280 270 268 266 254 242 232 231 229 230 236 239 241 231 215 212 200 193 190 184 177 174 167 174 158 158 159 162 160 159 159 154 156 159 156 151
21 10 6 6 0 350 332 309 291 268 253 243 234 228 226 219 209 193 196 201 195 192 194 194 186 189 181 170 171 173 167 162 159 159 157 159 156 154 154 157 156 149 148
29 25 27 32 41 39 24 13 8 342 291 239 188 174 179 190 181 183 182 188 192 186 176 173 176 179 176 172 169 164 165 162 159 156 155 157 151 152 156 152 148 151 152
37 46 59 69 81 85 84 92 89 87 95 117 127 136 153 162 168 171 174 181 180 179 171 165 167 170 168 167 163 162 165 157 156 152 153 150 149 152 153 150 151 150 148
46 61 72 82 91 97 105 112 114 115 109 117 127 139 146 145 149 156 158 156 161 162 162 158 145 148 150 154 153 158 155 155 153 155 146 150 151 152 150 149 150 146 148
57 63 75 88 91 92 90 94 101 112 115 116 119 125 128 129 131 133 135 139 139 140 146 150 153 150 149 151 147 148 159 152 148 146 149 149 151 150 149 147 146 149 149
66 70 74 80 85 87 83 90 98 101 105 109 113 117 123 127 126 124 126 130 131 136 143 143 145 148 146 149 143 147 154 148 147 145 151 144 145 147 146 147 146 146 145
79 84 84 85 86 89 96 97 96 104 105 107 110 110 110 110 110 112 116 120 122 127 135 137 139 146 149 150 147 148 152 154 149 140 138 142 144 146 148 147 143 144 145